Texarkana, AR

8:38 AM CDT on May 24, 2017 (GMT -0500)
Texarkana Regional-Webb

Weather History for KTXK - June, 2013

Change the Weather History Date:

Sunday, June 9, 2013

  Actual Average Record
Temperature  
Mean Temperature 76 °F 77 °F  
Max Temperature 84 °F 88 °F 100 °F (1939)
Min Temperature 68 °F 67 °F 54 °F (1930)
Degree Days  
Heating Degree Days 0 0  
Month to date heating degree days 0 0  
Since 1 June heating degree days 0 0  
Since 1 July heating degree days 2550 2616  
Cooling Degree Days 11 12  
Month to date cooling degree days 86 104  
Year to date cooling degree days 384 424  
Since 1 June cooling degree days 86 104  
Growing Degree Days 25 (Base 50)    
Moisture  
Dew Point 68 °F    
Average Humidity 72    
Maximum Humidity 97    
Minimum Humidity 47    
Precipitation  
Precipitation 0.38 in 0.13 in 2.59 in (2014)
Month to date precipitation 2.61 1.26  
Year to date precipitation 16.19 21.88  
Snow  
Snow 0.00 in - - ()
Month to date snowfall 0.0  
Since 1 June snowfall 0.0  
Since 1 July snowfall 2.1  
Snow Depth 0.00 in    
Sea Level Pressure  
Sea Level Pressure 29.91 in    
Wind  
Wind Speed 5 mph (SSW)    
Max Wind Speed 15 mph    
Max Gust Speed 21 mph    
Visibility 7 miles    
Events Rain    
T = Trace of Precipitation, MM = Missing Value Source: NWS Daily Summary

Daily Weather History Graph

Daily Weather History Graph

Search for Another Location

Airport or City:

Trip Planner

Search our weather history database for the weather conditions in past years. The results will help you decide how hot, cold, wet, or windy it might be!

Date:

Astronomy

Jun. 09, 2013 Rise Set
Actual Time 6:05 AM CDT 8:25 PM CDT
Civil Twilight 5:36 AM CDT 8:53 PM CDT
Nautical Twilight 5:01 AM CDT 9:29 PM CDT
Astronomical Twilight 4:23 AM CDT 10:07 PM CDT
Moon 6:59 AM CDT (6/9) 9:15 PM CDT (6/9)
Length of Visible Light 15h 16m
Length of Day
14h 19m
New Moon, 1% of the Moon is Illuminated
Jun 9
New Moon
Jun 16
First Quarter
Jun 23
Full
Jun 29
Last Quarter
Jul 8
New

Hourly Weather History & Observations

Time (CDT) Temp. Heat Index Dew Point Humidity Pressure Visibility Wind Dir Wind Speed Gust Speed Precip Events Conditions
12:53 AM 70.0 °F - 64.9 °F 84% 29.91 in 9.0 mi ESE 4.6 mph - N/A   Clear
1:53 AM 71.1 °F - 66.0 °F 84% 29.90 in 9.0 mi SSE 8.1 mph - N/A   Clear
2:53 AM 70.0 °F - 66.0 °F 87% 29.90 in 7.0 mi SE 4.6 mph - N/A   Clear
3:53 AM 70.0 °F - 66.9 °F 90% 29.90 in 7.0 mi SSE 8.1 mph - N/A   Partly Cloudy
4:53 AM 70.0 °F - 66.9 °F 90% 29.90 in 7.0 mi South 5.8 mph - N/A   Mostly Cloudy
5:53 AM 69.1 °F - 66.9 °F 93% 29.90 in 6.0 mi SSE 8.1 mph - N/A   Clear
6:53 AM 70.0 °F - 66.9 °F 90% 29.90 in 5.0 mi SSW 6.9 mph - N/A   Clear
7:53 AM 73.0 °F - 69.1 °F 87% 29.91 in 8.0 mi SSW 8.1 mph - N/A   Scattered Clouds
8:41 AM 73.4 °F - 69.8 °F 88% 29.94 in 9.0 mi SW 10.4 mph - N/A   Mostly Cloudy
8:53 AM 73.0 °F - 70.0 °F 90% 29.93 in 2.5 mi WSW 11.5 mph - 0.02 in Rain Rain
8:57 AM 71.6 °F - 69.8 °F 94% 29.94 in 1.8 mi WSW 6.9 mph - 0.01 in Rain Rain
9:05 AM 71.6 °F - 69.8 °F 94% 29.94 in 2.0 mi SW 6.9 mph - 0.03 in Rain Rain
9:14 AM 71.6 °F - 69.8 °F 94% 29.95 in 1.8 mi WSW 8.1 mph - 0.06 in Rain Rain
9:17 AM 71.6 °F - 69.8 °F 94% 29.95 in 2.0 mi WSW 9.2 mph - 0.07 in Rain Rain
9:21 AM 71.6 °F - 69.8 °F 94% 29.95 in 3.0 mi WSW 8.1 mph - 0.07 in Rain Light Rain
9:29 AM 71.6 °F - 69.8 °F 94% 29.95 in 4.0 mi SW 4.6 mph - 0.08 in Rain Light Rain
9:48 AM 71.6 °F - 69.8 °F 94% 29.95 in 1.8 mi WSW 6.9 mph - 0.15 in Rain Heavy Rain
9:53 AM 70.0 °F - 68.0 °F 93% 29.92 in 1.8 mi Calm Calm - 0.17 in Rain Heavy Rain
10:00 AM 71.6 °F - 68.0 °F 88% 29.94 in 4.0 mi Variable 3.5 mph - 0.01 in Rain Light Rain
10:29 AM 69.8 °F - 69.8 °F 100% 29.94 in 7.0 mi South 5.8 mph - 0.03 in Rain Light Rain
10:53 AM 70.0 °F - 68.0 °F 93% 29.94 in 3.0 mi SSW 13.8 mph - 0.07 in Rain Rain
11:16 AM 69.8 °F - 66.2 °F 88% 29.95 in 2.5 mi South 13.8 mph - 0.09 in Rain Rain
11:24 AM 68.0 °F - 66.2 °F 94% 29.95 in 6.0 mi South 8.1 mph - 0.09 in Rain Light Rain
11:53 AM 69.1 °F - 66.9 °F 93% 29.93 in 10.0 mi South 6.9 mph - 0.11 in Rain Light Rain
12:53 PM 73.0 °F - 70.0 °F 90% 29.91 in 10.0 mi SW 9.2 mph - 0.00 in   Mostly Cloudy
1:40 PM 77.0 °F - 69.8 °F 78% 29.90 in 10.0 mi West 5.8 mph - N/A   Partly Cloudy
1:53 PM 78.1 °F - 68.0 °F 71% 29.88 in 10.0 mi Variable 3.5 mph - N/A   Partly Cloudy
2:53 PM 82.0 °F 84.1 °F 66.0 °F 58% 29.87 in 10.0 mi Calm Calm - 0.01 in   Clear
3:53 PM 82.9 °F 83.3 °F 61.0 °F 47% 29.87 in 10.0 mi Calm Calm - N/A   Clear
4:53 PM 82.9 °F 85.0 °F 66.0 °F 56% 29.88 in 10.0 mi NW 4.6 mph - N/A   Scattered Clouds
5:53 PM 82.9 °F 84.6 °F 64.9 °F 54% 29.88 in 10.0 mi NW 6.9 mph - N/A   Partly Cloudy
6:53 PM 82.9 °F 85.0 °F 66.0 °F 56% 29.87 in 10.0 mi West 3.5 mph - N/A   Clear
7:53 PM 80.1 °F 82.7 °F 68.0 °F 67% 29.87 in 10.0 mi SSW 3.5 mph - N/A   Clear
8:53 PM 75.0 °F - 69.1 °F 82% 29.87 in 10.0 mi Calm Calm - N/A   Clear
9:53 PM 72.0 °F - 68.0 °F 87% 29.90 in 10.0 mi Calm Calm - N/A   Clear
10:53 PM 73.0 °F - 68.0 °F 84% 29.92 in 10.0 mi South 3.5 mph - N/A   Clear
11:53 PM 73.0 °F - 68.0 °F 84% 29.92 in 10.0 mi South 5.8 mph - N/A   Clear